Change the Weather History Date:

Sunday, May 18, 2014

  Actual Average Record
Temperature  
Mean Temperature 64 °F -  
Max Temperature 74 °F 65 °F 74 °F (2014)
Min Temperature 54 °F 50 °F 41 °F (2005)
Degree Days  
Heating Degree Days 1    
Growing Degree Days 14 (Base 50)    
Moisture  
Dew Point 49 °F    
Average Humidity 57    
Maximum Humidity 94    
Minimum Humidity 25    
Precipitation  
Precipitation 0.00 in - - ()
Sea Level Pressure  
Sea Level Pressure 29.90 in    
Wind  
Wind Speed 6 mph ()    
Max Wind Speed 13 mph    
Max Gust Speed 25 mph    
Visibility 9.5 miles    
Events      
Averages and records for this station are not official NWS values.
T = Trace of Precipitation, MM = Missing Value Source: Averaged Metar Reports

Daily Weather History Graph

Daily Weather History Graph

Search for Another Location

Airport or City:

Trip Planner

Search our weather history database for the weather conditions in past years. The results will help you decide how hot, cold, wet, or windy it might be!

Date:

Astronomy

May. 18, 2014 Rise Set
Actual Time 5:06 AM BST 8:51 PM BST
Civil Twilight 4:24 AM BST 9:33 PM BST
Nautical Twilight 3:26 AM BST 10:32 PM BST
Astronomical Twilight 1:53 AM BST 12:08 AM BST
Moon No Moon Rise 8:42 AM BST (5/18)
Length of Visible Light 17h 09m
Length of Day
15h 45m
Waning Gibbous, 83% of the Moon is Illuminated
May 18
Waning Gibbous
May 21
Last Quarter
May 28
New
Jun 5
First Quarter
Jun 13
Full

Hourly Weather History & Observations

Time (BST) Temp. Dew Point Humidity Pressure Visibility Wind Dir Wind Speed Gust Speed Precip Events Conditions
12:00 AM 62 °F 53 °F 63% 30.09 in 11 mi South 6.9 mph - -  
12:20 AM 60.8 °F 53.6 °F 77% 30.09 in - SSW 5.8 mph - N/A   Clear
12:50 AM 59.0 °F 53.6 °F 82% 30.06 in - SW 4.6 mph - N/A   Clear
1:00 AM 60 °F 52 °F 68% 30.08 in 8 mi SW 5.8 mph - -  
1:20 AM 59.0 °F 53.6 °F 82% 30.06 in - Variable 2.3 mph - N/A   Clear
1:50 AM 59.0 °F 53.6 °F 82% 30.06 in 6.2 mi Variable 3.5 mph - N/A   Partly Cloudy
2:00 AM 58 °F 52 °F 73% 30.06 in 8 mi SW 4.6 mph - -  
2:20 AM 57.2 °F 53.6 °F 88% 30.04 in - South 2.3 mph - N/A   Clear
2:50 AM 57.2 °F 51.8 °F 82% 30.04 in - South 3.5 mph - N/A   Clear
3:00 AM 57 °F 51 °F 74% 30.04 in 7 mi South 4.6 mph - -  
3:20 AM 55.4 °F 51.8 °F 88% 30.04 in 5.6 mi SSE 2.3 mph - N/A   Unknown
3:50 AM 55.4 °F 51.8 °F 88% 30.01 in 5.0 mi Calm Calm - N/A   Unknown
4:00 AM 55 °F 51 °F 82% 30.02 in 5 mi SE 2.3 mph - -   Light Haze
4:20 AM 55.4 °F 51.8 °F 88% 30.01 in 5.0 mi Calm Calm - N/A   Unknown
4:50 AM 53.6 °F 51.8 °F 94% 30.01 in 5.0 mi South 3.5 mph - N/A   Partly Cloudy
5:00 AM 54 °F 51 °F 87% 30.01 in 5 mi SSW 3.5 mph - -   Light Haze
5:20 AM 55.4 °F 51.8 °F 88% 30.01 in 4.3 mi South 2.3 mph - N/A   Partly Cloudy
5:50 AM 53.6 °F 51.8 °F 94% 29.98 in 5.0 mi Variable 2.3 mph - N/A   Unknown
6:00 AM 55 °F 51 °F 83% 29.99 in 7 mi Calm Calm - -  
6:20 AM 53.6 °F 51.8 °F 94% 29.98 in 5.0 mi SSE 3.5 mph - N/A   Unknown
6:50 AM 57.2 °F 51.8 °F 82% 29.98 in 5.0 mi SSE 3.5 mph - N/A   Unknown
7:00 AM 58 °F 53 °F 77% 29.99 in 6 mi SE 3.5 mph - -  
7:20 AM 59.0 °F 51.8 °F 77% 29.98 in 5.6 mi Variable 3.5 mph - N/A   Unknown
7:50 AM 59.0 °F 51.8 °F 77% 29.98 in - SSE 3.5 mph - N/A   Clear
8:00 AM 61 °F 52 °F 64% 29.99 in 9 mi SE 5.8 mph - -  
8:20 AM 62.6 °F 51.8 °F 68% 29.98 in - South 9.2 mph - N/A   Clear
8:50 AM 64.4 °F 51.8 °F 64% 29.98 in - South 8.1 mph - N/A   Clear
9:00 AM 65 °F 52 °F 54% 29.97 in 12 mi South 8.1 mph - -  
9:20 AM 66.2 °F 51.8 °F 60% 29.95 in - South 8.1 mph - N/A   Clear
9:50 AM 68.0 °F 51.8 °F 56% 29.95 in - SSE 10.4 mph - N/A   Clear
10:00 AM 67 °F 51 °F 47% 29.95 in 17 mi South 11.5 mph - -  
10:20 AM 68.0 °F 51.8 °F 56% 29.95 in - SSE 10.4 mph - N/A   Clear
10:50 AM 68.0 °F 51.8 °F 56% 29.92 in - SSE 11.5 mph - N/A   Clear
11:00 AM 69 °F 52 °F 45% 29.93 in 17 mi SSE 9.2 mph - -  
11:20 AM 69.8 °F 50.0 °F 49% 29.92 in 6.2 mi South 9.2 mph - N/A   Unknown
11:50 AM 71.6 °F 50.0 °F 46% 29.89 in 6.2 mi South 9.2 mph - N/A   Partly Cloudy
12:00 PM 70 °F 49 °F 37% 29.90 in 19 mi SSE 10.4 mph - -  
12:20 PM 71.6 °F 50.0 °F 46% 29.89 in 6.2 mi SSE 8.1 mph - N/A   Partly Cloudy
12:50 PM 73.4 °F 50.0 °F 44% 29.86 in - SSW 9.2 mph - N/A   Clear
1:00 PM 72 °F 49 °F 34% 29.87 in 28 mi South 9.2 mph - -  
1:20 PM 73.4 °F 50.0 °F 44% 29.86 in - SSW 9.2 mph - N/A   Clear
1:50 PM 73.4 °F 50.0 °F 44% 29.86 in - SSW 8.1 mph - N/A   Clear
2:00 PM 72 °F 49 °F 34% 29.85 in 18 mi SSE 9.2 mph - -  
2:20 PM 73.4 °F 50.0 °F 44% 29.83 in - South 10.4 mph - N/A   Clear
2:50 PM 73.4 °F 50.0 °F 44% 29.83 in - SSE 10.4 mph - N/A   Clear
3:00 PM 73 °F 50 °F 33% 29.83 in 18 mi South 8.1 mph - -   Scattered Clouds
3:20 PM 73.4 °F 48.2 °F 41% 29.83 in - South 9.2 mph - N/A   Clear
3:50 PM 73.4 °F 48.2 °F 41% 29.80 in - South 9.2 mph 20.7 mph N/A   Clear
4:00 PM 74 °F 50 °F 31% 29.81 in 28 mi South 10.4 mph - -  
4:20 PM 73.4 °F 46.4 °F 38% 29.80 in - South 10.4 mph - N/A   Clear
4:50 PM 73.4 °F 44.6 °F 36% 29.80 in - SSE 10.4 mph - N/A   Clear
5:00 PM 73 °F 47 °F 29% 29.79 in 34 mi SSW 11.5 mph - -  
5:20 PM 71.6 °F 46.4 °F 41% 29.77 in - South 12.7 mph 25.3 mph N/A   Clear
5:50 PM 71.6 °F 48.2 °F 43% 29.77 in - South 11.5 mph - N/A   Clear
6:00 PM 71 °F 49 °F 34% 29.78 in 17 mi South 11.5 mph - -  
6:20 PM 71.6 °F 48.2 °F 43% 29.77 in - South 12.7 mph - N/A   Clear
6:50 PM 69.8 °F 48.2 °F 46% 29.77 in - South 12.7 mph 24.2 mph N/A   Clear
7:00 PM 70 °F 48 °F 35% 29.77 in 19 mi South 12.7 mph - -  
7:20 PM 69.8 °F 44.6 °F 40% 29.77 in 6.2 mi South 12.7 mph - N/A   Unknown
7:50 PM 68.0 °F 41.0 °F 37% 29.77 in - South 10.4 mph - N/A   Clear
8:00 PM 68 °F 41 °F 25% 29.77 in 25 mi SSE 10.4 mph - -  
8:20 PM 68.0 °F 39.2 °F 35% 29.77 in - SSE 9.2 mph - N/A   Clear
8:50 PM 66.2 °F 42.8 °F 43% 29.77 in - SSE 6.9 mph - N/A   Clear
9:00 PM 66 °F 43 °F 31% 29.77 in 19 mi South 10.4 mph - -  
9:20 PM 64.4 °F 42.8 °F 45% 29.77 in - South 9.2 mph - N/A   Clear
9:50 PM 62.6 °F 44.6 °F 52% 29.77 in - SSE 6.9 mph - N/A   Clear
10:00 PM 64 °F 44 °F 37% 29.76 in 28 mi SSE 8.1 mph - -  
10:20 PM 60.8 °F 44.6 °F 55% 29.74 in - SE 5.8 mph - N/A   Clear
10:50 PM 59.0 °F 44.6 °F 59% 29.74 in - SE 4.6 mph - N/A   Clear
11:00 PM 60 °F 44 °F 45% 29.75 in 14 mi SE 4.6 mph - -  
11:20 PM 59.0 °F 46.4 °F 63% 29.74 in - East 4.6 mph - N/A   Clear
11:50 PM 57.2 °F 46.4 °F 67% 29.74 in - East 4.6 mph - N/A   Clear